Location: Newark
(55.7083°N, 13.1992°E)
Time: 11:33:25
(UTC+00:00)

SR - All Passes

Search period start: 19 February 2020 00:00
Search period end: 29 February 2020 00:00
Orbit: 575 x 881 km, 66.7° (Epoch: 18 February)

Date Brightness Start Highest point End Pass type
(mag) Time Alt. Az. Time Alt. Az. Time Alt. Az.
19 Feb - 00:43:18 10° WNW 00:47:39 25° WSW 00:51:43 10° SSW night (unlit)
19 Feb - 13:41:05 10° ESE 13:43:07 12° ESE 13:45:09 10° E daylight
19 Feb - 15:18:22 10° SSW 15:24:02 49° ESE 15:29:37 10° NE daylight
19 Feb - 17:00:24 10° WSW 17:06:14 56° NW 17:11:52 10° NE visible
19 Feb - 18:44:22 10° WNW 18:49:27 29° NNW 18:54:18 10° NE visible
19 Feb - 20:28:08 10° NW 20:33:06 29° NNE 20:37:45 10° ENE visible
19 Feb - 22:10:47 10° NW 22:16:18 56° NE 22:21:21 10° ESE visible
19 Feb - 23:53:13 10° NW 23:58:20 42° WSW 00:03:00 10° S visible
20 Feb - 14:29:29 10° S 14:34:37 31° ESE 14:39:39 10° NE daylight
20 Feb - 16:10:26 10° SW 16:16:23 78° NW 16:22:09 10° NE daylight
20 Feb - 17:53:58 10° W 17:59:17 34° NNW 18:04:24 10° NE visible
20 Feb - 19:38:01 10° NW 19:42:52 27° N 19:47:28 10° ENE visible
20 Feb - 21:21:00 10° NW 21:26:20 41° NNE 21:31:14 10° E visible
20 Feb - 23:03:21 10° NW 23:08:49 68° SW 23:13:47 10° SSE visible
21 Feb - 00:46:51 10° WNW 00:49:53 15° WSW 00:52:46 10° SW night (unlit)
21 Feb - 13:41:16 10° SSE 13:45:20 19° ESE 13:49:21 10° ENE daylight
21 Feb - 15:20:45 10° SSW 15:26:41 73° SE 15:32:25 10° NE daylight
21 Feb - 17:03:36 10° W 17:09:13 43° NNW 17:14:36 10° NE visible
21 Feb - 18:47:45 10° WNW 18:52:38 27° N 18:57:18 10° NE visible
21 Feb - 20:31:09 10° NW 20:36:14 33° NNE 20:40:59 10° E visible
21 Feb - 22:13:34 10° NW 22:19:08 79° NE 22:24:12 10° SE visible
21 Feb - 23:56:18 10° WNW 00:00:42 26° WSW 00:04:49 10° SSW visible
22 Feb - 12:54:35 10° ESE 12:56:13 11° E 12:57:50 10° E daylight
22 Feb - 14:31:27 10° SSW 14:37:06 47° ESE 14:42:37 10° NE daylight
22 Feb - 16:13:25 10° WSW 16:19:15 57° NW 16:24:52 10° NE daylight
22 Feb - 17:57:21 10° WNW 18:02:26 30° NNW 18:07:16 10° NE visible
22 Feb - 19:41:09 10° NW 19:46:04 28° N 19:50:41 10° ENE visible
22 Feb - 21:23:49 10° NW 21:29:18 54° NE 21:34:18 10° ESE visible
22 Feb - 23:06:14 10° NW 23:11:22 44° WSW 23:16:02 10° S visible
23 Feb - 13:42:38 10° S 13:47:40 30° ESE 13:52:38 10° NE daylight
23 Feb - 15:23:27 10° SW 15:29:25 81° NW 15:35:10 10° NE daylight
23 Feb - 17:06:56 10° W 17:12:16 35° NNW 17:17:23 10° NE visible
23 Feb - 18:51:01 10° NW 18:55:51 27° N 19:00:25 10° ENE visible
23 Feb - 20:34:02 10° NW 20:39:19 40° NNE 20:44:11 10° E visible
23 Feb - 22:16:23 10° NW 22:21:50 71° SW 22:26:48 10° SSE visible
23 Feb - 23:59:48 10° WNW 00:02:57 16° WSW 00:05:57 10° SW visible
24 Feb - 12:54:28 10° SSE 12:58:24 19° ESE 13:02:17 10° ENE daylight
24 Feb - 14:33:49 10° SSW 14:39:43 70° SE 14:45:26 10° NE daylight
24 Feb - 16:16:35 10° WSW 16:22:13 44° NNW 16:27:36 10° NE daylight
24 Feb - 18:00:44 10° WNW 18:05:37 27° N 18:10:15 10° NE visible
24 Feb - 19:44:10 10° NW 19:49:13 32° NNE 19:53:56 10° E visible
24 Feb - 21:26:36 10° NW 21:32:09 76° NE 21:37:11 10° SE visible
24 Feb - 23:09:18 10° WNW 23:13:45 27° WSW 23:17:54 10° S visible
25 Feb - 12:08:15 10° ESE 12:09:18 10° E 12:10:21 10° E daylight
25 Feb - 13:44:33 10° S 13:50:09 45° ESE 13:55:36 10° NE daylight
25 Feb - 15:26:24 10° WSW 15:32:16 59° NW 15:37:52 10° NE daylight
25 Feb - 17:10:20 10° WNW 17:15:24 30° NNW 17:20:15 10° NE visible
25 Feb - 18:54:10 10° NW 18:59:03 28° N 19:03:37 10° ENE visible
25 Feb - 20:36:51 10° NW 20:42:18 52° NE 20:47:16 10° ESE visible
25 Feb - 22:19:16 10° NW 22:24:24 45° WSW 22:29:05 10° SSE visible
26 Feb - 12:55:46 10° S 13:00:44 29° ESE 13:05:36 10° ENE daylight
26 Feb - 14:36:29 10° SW 14:42:26 83° NW 14:48:10 10° NE daylight
26 Feb - 16:19:55 10° W 16:25:16 35° NNW 16:30:22 10° NE daylight
26 Feb - 18:04:01 10° NW 18:08:49 27° N 18:13:22 10° ENE visible
26 Feb - 19:47:03 10° NW 19:52:18 39° NNE 19:57:08 10° E visible
26 Feb - 21:29:24 10° NW 21:34:52 74° SW 21:39:48 10° SSE visible
26 Feb - 23:12:44 10° WNW 23:16:00 17° WSW 23:19:07 10° SW visible
27 Feb - 12:07:43 10° SSE 12:11:28 18° ESE 12:15:11 10° ENE daylight
27 Feb - 13:46:53 10° SSW 13:52:45 67° SE 13:58:26 10° NE daylight
27 Feb - 15:29:35 10° WSW 15:35:13 45° NNW 15:40:36 10° NE daylight
27 Feb - 17:13:42 10° WNW 17:18:35 27° N 17:23:13 10° NE visible
27 Feb - 18:57:12 10° NW 19:02:12 31° NNE 19:06:51 10° E visible
27 Feb - 20:39:38 10° NW 20:45:09 73° NE 20:50:09 10° SE visible
27 Feb - 22:22:17 10° NW 22:26:48 29° WSW 22:30:58 10° S visible
28 Feb - 12:57:38 10° S 13:03:12 43° ESE 13:08:36 10° NE daylight
28 Feb - 14:39:25 10° WSW 14:45:17 61° NW 14:50:53 10° NE daylight
28 Feb - 16:23:18 10° WNW 16:28:23 30° NNW 16:33:13 10° NE daylight
28 Feb - 18:07:12 10° NW 18:12:01 28° N 18:16:33 10° ENE visible
28 Feb - 19:49:53 10° NW 19:55:17 50° NE 20:00:13 10° ESE visible
28 Feb - 21:32:16 10° NW 21:37:26 47° WSW 21:42:07 10° SSE visible
